Wetbulb
49.91 45.19 43.49 45.80 47.91 48.06 48.04 48.04 46.95 52.05 55.10 57.52 58.09 59.05 62.37 63.85 64.37 63.77 64.26 64.69 65.04 65.76 68.42 69.82 70.45 71.61 72.11 72.17 72.27 72.46 72.38 73.20 72.73 72.03 71.91 72.32 72.50 74.04 74.50 74.66 75.77 76.61 76.77 77.13
45.42 43.01 47.14 48.06 46.93 46.49 46.67 46.79 47.76 51.43 55.06 57.26 57.87 57.79 61.14 63.58 63.66 64.59 64.16 64.39 64.31 65.86 67.58 68.71 69.75 70.73 71.53 72.16 72.32 72.16 72.45 73.12 73.06 72.46 73.34 73.88 74.15 74.37 75.37 75.11 75.99 76.65 76.90 77.61
45.59 46.72 48.68 46.20 45.30 44.62 45.45 44.83 46.32 48.27 51.05 55.52 56.61 55.09 58.80 63.40 64.65 64.72 65.42 65.63 64.13 65.78 66.38 67.85 68.84 70.04 71.18 71.55 72.17 72.26 73.05 73.33 73.63 74.20 73.75 73.82 74.30 74.44 73.99 74.26 74.50 76.08 76.93 77.28
48.08 51.22 46.98 46.05 44.61 45.69 42.66 47.52 47.12 47.18 47.49 45.93 55.80 48.74 56.53 61.08 62.21 63.80 64.46 64.51 64.93 65.63 67.09 68.15 68.81 69.30 70.36 71.37 72.73 73.44 73.47 73.55 73.37 74.32 73.96 74.69 72.72 71.80 73.31 74.36 74.86 75.86 76.91 76.62
47.06 47.87 47.24 45.22 45.38 46.98 44.59 47.44 46.22 46.74 46.33 47.15 49.02 49.96 54.14 59.60 59.97 62.48 64.77 65.64 65.73 66.50 67.08 67.57 68.58 69.71 70.80 71.94 72.02 72.65 73.10 74.08 74.61 74.53 74.58 73.39 74.06 73.67 73.95 73.99 75.24 75.76 76.54 76.74
46.44 49.00 50.37 49.96 49.52 47.98 48.59 47.54 46.74 46.33 44.71 39.36 46.69 48.21 51.07 55.79 59.44 62.49 65.20 66.44 67.09 67.20 67.32 68.48 69.72 70.59 70.58 71.72 71.96 72.31 72.94 73.57 74.21 74.12 74.26 74.98 74.81 73.92 72.60 73.39 73.01 73.70 74.58 75.58
43.49 45.62 48.66 50.13 48.16 49.25 47.28 44.45 39.55 38.22 38.18 37.27 46.10 45.72 49.06 56.20 60.94 62.56 64.31 66.16 67.50 68.33 68.24 68.21 68.76 69.44 70.29 70.82 71.50 72.28 73.50 72.98 73.92 73.90 74.02 74.56 75.13 75.17 74.40 74.03 72.98 74.21 73.07 73.92
39.01 38.16 45.07 46.28 47.51 46.38 46.60 46.15 40.75 35.32 37.18 39.75 45.69 43.25 48.60 55.57 57.36 63.20 65.29 66.78 68.04 68.40 68.92 69.03 69.59 70.15 70.71 71.53 72.24 72.33 72.86 73.06 73.54 73.59 74.26 75.04 75.62 73.31 73.48 74.58 73.57 73.01 72.93 73.54
38.40 38.39 44.09 45.88 46.75 47.92 46.79 43.79 48.49 43.30 44.00 41.98 43.88 46.96 52.05 55.46 56.69 58.06 60.31 64.49 66.51 67.91 68.88 69.32 69.78 70.27 70.83 71.70 72.22 72.16 72.79 73.07 73.42 73.42 74.22 74.61 74.84 74.74 74.19 75.42 75.19 73.55 75.18 73.73
38.46 32.62 39.98 43.84 46.47 48.35 47.38 50.70 43.20 44.17 36.97 36.77 42.68 44.39 45.13 51.19 54.16 57.29 58.40 61.04 64.52 67.28 68.37 69.74 70.38 70.91 71.53 71.72 72.57 72.88 73.14 73.17 73.46 73.55 73.85 73.77 74.38 74.81 75.02 75.09 74.73 75.12 74.91 74.63
40.02 36.46 36.05 40.18 42.13 44.61 44.86 44.53 47.02 47.52 44.95 39.91 38.89 43.59 52.75 52.72 55.94 56.60 58.35 60.37 63.38 65.20 66.90 68.61 70.35 71.83 71.90 71.98 72.40 72.54 72.66 73.15 73.20 73.39 73.54 74.05 74.20 74.19 74.45 73.92 74.32 75.01 75.04 75.02
40.66 37.77 32.66 35.19 41.04 45.25 43.96 43.19 46.09 42.72 42.60 45.80 44.28 45.01 53.72 55.90 56.46 58.09 58.96 60.84 62.99 65.62 66.58 68.15 69.22 70.59 71.50 72.22 72.37 72.13 72.51 72.45 73.15 73.74 73.88 73.87 74.61 74.84 73.66 74.14 74.19 74.69 74.61 74.99
41.33 35.39 30.43 34.06 40.06 43.04 40.56 43.38 43.80 43.89 45.77 43.91 42.28 44.20 55.49 56.42 55.82 57.08 57.74 59.58 62.46 65.37 66.68 67.74 68.48 69.85 71.04 71.97 72.50 72.35 72.63 71.99 72.84 73.45 72.97 73.67 74.21 74.01 74.55 74.65 74.90 74.55 74.85 75.00
43.59 36.52 33.48 30.03 33.74 36.36 35.43 38.23 41.02 39.97 40.90 43.37 45.36 48.53 52.91 54.44 55.65 57.48 58.07 57.79 58.25 63.90 65.99 67.43 67.86 68.78 70.58 71.48 72.41 72.70 72.78 72.51 72.55 72.85 72.96 73.33 73.88 74.55 74.66 75.27 75.33 74.61 74.98 74.96
40.52 32.87 35.00 35.71 36.09 35.98 35.42 35.65 37.98 38.06 40.53 40.49 46.44 47.92 52.33 55.48 56.51 59.07 60.02 58.15 59.33 59.49 65.27 67.36 67.39 69.30 69.40 70.49 72.17 72.93 73.29 73.12 73.44 72.95 72.90 73.31 74.31 74.86 75.22 75.29 75.21 74.74 74.98 75.30
39.81 33.23 35.10 32.73 36.23 36.70 34.13 37.08 38.53 39.77 40.92 41.63 43.82 45.88 53.01 55.50 60.23 57.85 59.72 60.93 61.78 63.16 62.39 65.89 67.99 69.33 69.68 69.59 71.00 72.57 72.89 72.84 73.51 73.12 72.98 74.13 74.38 74.91 75.02 75.23 75.20 75.21 74.51 74.65
36.22 33.99 32.41 28.78 35.41 35.75 32.89 37.70 39.83 41.72 44.70 44.29 43.07 49.48 54.06 54.82 57.75 56.26 56.67 57.88 59.10 61.84 64.66 64.75 65.39 69.52 69.89 69.80 71.20 71.57 72.47 73.30 72.81 73.09 73.72 74.23 74.71 74.40 74.79 75.23 75.29 75.45 75.50 75.32
34.72 33.06 33.31 29.57 32.07 23.61 39.21 47.52 46.12 44.25 44.03 45.67 46.79 49.29 51.59 57.82 58.32 57.92 57.35 56.63 57.98 60.05 62.82 65.97 67.51 65.83 70.01 70.52 70.65 72.63 72.70 72.95 72.68 72.65 73.21 74.06 74.41 74.40 74.91 74.94 74.34 75.07 74.48 75.37
39.74 35.71 31.16 27.52 27.85 34.71 41.64 43.33 44.56 44.38 41.33 44.76 44.90 47.63 50.12 56.81 60.33 59.64 55.93 56.42 57.59 59.77 63.26 66.45 69.76 65.49 70.12 70.56 72.09 72.54 72.55 72.68 72.68 72.56 72.93 73.59 74.24 74.44 74.93 74.39 74.66 75.04 74.38 73.98
38.54 39.04 33.59 30.14 26.54 29.59 39.04 43.79 46.40 47.39 40.69 45.51 45.88 46.83 48.74 57.24 55.11 53.78 53.94 54.69 57.43 61.20 64.77 69.11 69.25 68.48 69.49 71.38 71.36 72.28 71.20 72.46 72.25 73.09 73.47 74.35 74.72 74.55 74.59 75.20 75.39 76.03 75.30 74.99
30.82 32.51 29.50 29.86 27.35 32.31 39.94 42.47 46.51 38.55 40.31 45.69 46.90 47.49 49.12 49.79 51.58 52.25 53.56 55.75 59.38 62.64 65.90 70.46 70.27 70.10 71.70 72.56 72.25 71.72 72.37 72.13 73.34 73.60 74.15 74.94 75.09 74.97 75.39 75.60 76.13 76.19 75.65 76.05
30.95 29.55 29.09 30.60 27.38 27.04 39.34 41.52 41.03 43.79 46.30 46.12 47.40 48.20 48.38 50.04 50.30 50.92 52.09 54.02 56.47 59.47 62.78 68.14 70.07 69.53 70.89 72.25 72.14 71.99 72.26 73.83 74.94 74.86 74.47 75.29 75.79 74.88 74.65 76.01 75.79 75.92 75.97 75.63
32.14 34.49 34.01 35.10 34.82 40.72 41.30 42.55 47.63 48.51 46.31 46.24 47.18 49.11 49.29 48.79 49.21 50.98 51.43 52.68 53.02 54.08 55.92 59.87 63.91 64.47 67.08 72.20 72.24 71.02 72.64 73.43 74.32 74.83 75.11 75.16 75.66 75.49 76.49 75.72 75.61 74.66 75.45 74.52
36.33 38.80 35.12 35.96 39.08 40.07 41.68 45.57 47.24 48.73 48.55 47.95 48.57 48.90 49.11 47.57 49.43 51.36 52.69 53.01 53.14 52.97 53.54 55.17 57.59 58.10 60.53 63.56 65.54 68.34 72.86 73.68 72.98 73.75 73.97 74.66 74.41 74.69 75.71 75.24 75.21 74.77 74.76 74.77
38.21 38.93 36.48 36.52 39.53 41.91 42.77 44.97 46.81 47.14 49.02 48.34 49.31 49.34 49.16 48.93 48.75 50.90 52.08 53.78 54.53 55.13 54.80 54.30 54.64 55.13 56.57 60.20 62.17 62.95 66.39 73.80 73.88 73.23 72.76 73.04 73.28 73.97 74.71 75.44 75.06 75.16 76.92 72.93
40.96 37.71 34.90 35.05 40.87 42.69 42.93 46.95 48.84 48.05 48.83 48.54 48.56 48.59 50.13 50.42 49.38 50.44 52.26 53.23 53.75 55.56 55.94 53.89 53.98 54.19 55.30 56.95 59.07 61.14 62.63 64.58 69.91 71.64 73.63 71.85 74.20 74.19 73.97 73.64 72.89 51.14 53.29 50.36
MSLP
1008.71 1008.26 1006.87 1006.70 1007.48 1007.36 1006.99 1006.34 1005.49 1005.01 1004.63 1004.59 1004.18 1004.76 1005.99 1007.23 1008.17 1008.81 1009.49 1010.18 1010.61 1011.05 1011.69 1012.43 1013.07 1013.77 1014.39 1014.96 1015.53 1016.11 1016.64 1017.06 1017.61 1017.96 1018.06 1018.34 1018.50 1018.85 1019.12 1019.19 1019.37 1019.60 1019.84 1020.12
1008.85 1007.15 1006.99 1007.76 1008.05 1007.84 1007.35 1006.62 1005.77 1005.19 1004.85 1004.86 1004.33 1004.01 1005.21 1006.36 1006.71 1007.39 1008.26 1009.09 1009.83 1010.61 1011.11 1011.73 1012.35 1012.98 1013.58 1014.29 1014.93 1015.59 1016.10 1016.71 1017.17 1017.58 1017.85 1017.97 1018.22 1018.57 1018.73 1018.93 1019.21 1019.41 1019.61 1019.89
1007.36 1007.07 1007.31 1007.57 1007.65 1007.57 1007.07 1006.51 1006.30 1005.68 1005.32 1004.83 1004.47 1004.11 1004.78 1005.55 1006.43 1007.22 1007.92 1008.73 1009.53 1009.69 1010.12 1010.78 1011.37 1011.95 1012.76 1013.43 1014.08 1014.85 1015.53 1016.17 1016.72 1017.17 1017.73 1018.03 1018.21 1018.50 1018.78 1018.93 1019.08 1019.15 1019.44 1019.69
1007.42 1006.91 1007.03 1006.81 1006.65 1007.11 1006.61 1006.74 1006.83 1006.49 1006.01 1004.57 1004.31 1003.03 1003.49 1004.22 1005.19 1005.95 1006.71 1007.53 1008.05 1008.81 1009.51 1009.99 1010.58 1011.07 1011.48 1012.39 1013.35 1014.17 1014.97 1015.70 1016.30 1016.84 1017.25 1017.44 1017.46 1017.65 1018.13 1018.57 1018.84 1018.92 1019.29 1019.53
1006.73 1006.39 1006.39 1006.36 1006.27 1006.73 1006.00 1006.68 1006.60 1006.55 1006.23 1005.57 1004.05 1003.24 1002.01 1003.11 1003.69 1004.32 1005.12 1005.78 1006.64 1007.37 1008.17 1008.66 1009.18 1009.83 1010.69 1011.81 1012.50 1013.39 1014.29 1015.07 1015.64 1016.22 1016.57 1017.10 1017.24 1017.44 1017.95 1018.34 1018.79 1019.06 1019.22 1019.43
1007.50 1006.86 1005.96 1005.47 1006.00 1006.35 1006.48 1006.39 1006.40 1006.39 1006.10 1004.58 1003.57 1002.84 1000.81 1001.34 1001.69 1002.60 1003.42 1004.41 1005.24 1005.95 1006.81 1007.47 1008.32 1009.37 1010.02 1010.94 1011.79 1012.55 1013.47 1014.21 1014.97 1015.58 1016.06 1016.53 1016.84 1017.17 1017.66 1018.01 1018.25 1018.61 1018.97 1019.12
1008.13 1006.91 1006.16 1005.79 1005.68 1006.02 1006.36 1005.95 1005.79 1005.90 1005.02 1002.17 1002.75 1002.39 1000.89 1000.39 1000.96 1000.94 1001.57 1002.55 1003.67 1004.64 1005.63 1006.44 1007.21 1008.02 1008.94 1009.71 1010.64 1011.52 1012.58 1013.30 1014.12 1014.84 1015.40 1015.79 1016.37 1016.87 1017.16 1017.56 1017.77 1017.96 1018.39 1018.70
1008.89 1007.57 1007.09 1007.37 1005.90 1005.33 1005.37 1005.19 1003.97 1003.53 1002.78 1002.11 1002.28 999.77 999.26 1000.16 1000.26 1000.57 1000.69 1001.23 1002.53 1003.56 1004.37 1005.09 1005.73 1006.63 1007.57 1008.36 1009.42 1010.37 1011.35 1012.33 1013.11 1013.88 1014.51 1015.16 1015.65 1016.19 1016.53 1016.91 1017.06 1017.51 1017.77 1018.08
1010.57 1009.02 1008.47 1007.82 1007.38 1006.50 1005.03 1004.35 1003.87 1003.45 1003.35 1001.96 1000.22 1000.03 999.54 999.25 999.13 999.20 1000.03 1000.61 1001.07 1001.90 1002.71 1003.42 1004.49 1005.17 1006.04 1007.19 1008.16 1009.13 1010.20 1011.21 1012.16 1012.85 1013.73 1014.37 1014.93 1015.40 1015.75 1016.15 1016.64 1017.04 1017.47 1017.69
1012.56 1010.83 1009.33 1008.59 1007.76 1006.51 1005.63 1004.33 1004.27 1003.83 1002.37 1000.99 999.59 998.79 997.30 997.59 998.04 998.19 998.47 999.23 999.93 1000.59 1001.38 1002.17 1003.01 1003.93 1004.79 1005.65 1006.84 1007.94 1009.08 1009.95 1010.78 1011.93 1012.79 1013.53 1014.01 1014.54 1015.07 1015.66 1015.97 1016.34 1016.88 1017.33
1013.62 1012.70 1010.00 1009.18 1007.65 1006.26 1006.31 1005.22 1004.22 1003.34 1002.34 1000.49 999.62 997.80 997.21 996.95 996.86 997.11 997.63 998.14 998.55 999.18 999.83 1000.40 1001.22 1002.39 1003.43 1004.53 1005.70 1006.62 1007.82 1008.91 1009.89 1010.72 1011.60 1012.46 1013.20 1013.73 1014.41 1014.92 1015.34 1015.72 1016.24 1016.80
1014.27 1013.68 1011.57 1009.68 1008.46 1008.29 1007.87 1006.71 1005.14 1003.66 1002.41 1001.32 999.91 997.83 996.93 996.71 996.38 996.45 996.66 997.09 997.51 997.99 998.47 999.20 1000.11 1001.61 1002.70 1003.41 1004.29 1005.18 1006.37 1007.59 1008.46 1009.43 1010.59 1011.38 1012.25 1012.99 1013.61 1014.04 1014.57 1015.09 1015.53 1016.04
1014.77 1014.35 1012.46 1009.51 1008.81 1009.07 1008.63 1007.73 1007.14 1005.95 1003.72 1001.35 999.96 998.71 997.24 997.19 996.95 996.81 996.94 997.07 997.42 997.63 998.32 999.21 999.85 1000.30 1001.16 1002.17 1003.10 1004.00 1005.04 1006.07 1007.03 1008.24 1009.43 1010.43 1011.19 1012.12 1012.56 1013.04 1013.72 1014.40 1014.86 1015.19
1015.11 1014.80 1013.40 1011.29 1010.26 1010.82 1010.17 1009.32 1008.59 1007.49 1004.41 1002.25 1000.33 999.08 997.78 997.23 996.85 996.83 997.17 997.39 997.60 997.66 997.93 998.49 999.19 999.65 1000.40 1001.29 1002.15 1003.03 1004.00 1005.04 1006.06 1007.09 1008.17 1009.19 1010.04 1010.88 1011.49 1012.08 1012.87 1013.61 1014.09 1014.46
1015.50 1014.90 1014.28 1013.02 1011.95 1011.30 1010.55 1009.69 1008.95 1007.79 1006.14 1003.57 1001.09 999.87 998.35 997.74 997.59 997.16 997.45 997.98 998.04 998.09 997.87 998.01 998.25 998.78 999.58 1000.52 1001.48 1002.38 1003.27 1004.31 1005.11 1006.24 1007.14 1008.00 1009.00 1009.83 1010.60 1011.43 1012.01 1012.71 1013.34 1013.65
1015.97 1015.06 1014.59 1013.17 1011.85 1010.83 1009.49 1008.70 1008.22 1007.52 1005.99 1004.90 1003.09 1000.89 999.87 999.28 998.95 998.66 998.78 998.77 998.50 998.44 998.14 997.80 997.78 998.19 998.67 999.33 1000.00 1000.93 1002.00 1003.05 1004.15 1005.25 1006.03 1007.05 1008.11 1009.06 1009.66 1010.38 1011.17 1011.87 1012.35 1012.89
1015.82 1015.27 1014.36 1012.46 1011.57 1010.76 1008.18 1006.26 1006.19 1006.24 1005.40 1004.65 1002.83 1001.18 1000.83 999.91 999.87 1000.07 1000.12 1000.01 999.53 999.13 998.81 998.23 997.45 997.23 997.40 997.98 998.85 999.74 1000.74 1002.30 1003.38 1004.44 1005.41 1006.26 1007.24 1008.09 1008.77 1009.44 1010.29 1010.80 1011.27 1011.98
1015.21 1015.33 1014.83 1013.00 1012.07 1010.07 1006.21 1004.69 1003.92 1004.84 1005.54 1005.21 1004.24 1002.74 1001.87 1000.48 1000.71 1000.83 1000.92 1000.77 1000.32 999.70 998.82 997.93 997.19 996.39 996.51 996.99 998.11 999.56 1000.47 1001.59 1002.75 1003.76 1004.57 1005.37 1006.24 1007.03 1007.89 1008.71 1009.37 1009.93 1010.57 1011.03
1014.49 1015.01 1014.51 1013.65 1012.36 1009.57 1007.27 1006.07 1004.57 1004.35 1005.56 1005.65 1004.93 1003.58 1002.51 1001.49 1000.87 1000.57 1001.15 1000.86 1000.28 999.73 998.67 997.61 996.64 995.45 995.73 996.45 997.39 998.79 999.90 1000.95 1002.07 1002.85 1003.59 1004.32 1005.25 1006.21 1007.07 1007.82 1008.46 1009.05 1009.73 1010.33
1014.62 1014.80 1014.95 1014.22 1013.17 1010.23 1007.83 1007.40 1007.29 1005.85 1005.49 1005.91 1005.49 1003.98 1002.91 1001.43 1001.09 1001.89 1001.89 1001.40 1000.47 999.73 998.95 997.08 995.31 994.65 995.03 995.62 996.99 998.23 999.40 1000.19 1000.90 1001.64 1002.53 1003.60 1004.59 1005.51 1006.17 1006.84 1007.37 1007.92 1008.56 1009.00
1014.65 1014.93 1014.59 1014.51 1014.06 1011.61 1009.76 1009.03 1007.47 1006.58 1006.34 1006.00 1005.63 1004.68 1003.81 1002.85 1003.11 1003.21 1002.83 1002.07 1001.24 1000.09 998.47 996.61 994.81 994.63 994.95 995.61 996.99 997.93 998.89 999.39 999.99 1001.36 1002.29 1003.11 1003.85 1004.54 1005.09 1005.78 1006.42 1007.01 1007.60 1008.08
1014.15 1014.46 1014.37 1014.64 1014.37 1012.26 1010.97 1009.20 1007.21 1007.17 1006.85 1006.68 1006.09 1005.38 1004.85 1004.51 1004.29 1003.88 1003.65 1002.63 1001.72 1000.57 998.50 997.41 996.71 996.49 996.25 996.55 997.31 998.06 998.69 999.75 1000.42 1001.07 1001.78 1002.51 1003.19 1003.91 1004.54 1005.17 1005.75 1006.38 1006.95 1007.50
1014.26 1014.31 1013.50 1013.35 1012.45 1011.45 1010.78 1010.01 1008.95 1008.23 1007.63 1007.21 1006.68 1006.19 1005.74 1005.22 1004.83 1004.65 1004.16 1003.26 1002.16 1000.97 1000.17 1000.02 999.00 998.34 998.28 998.29 998.36 998.84 999.44 1000.02 1000.24 1000.74 1001.23 1001.85 1002.59 1003.21 1003.63 1004.38 1005.03 1005.70 1006.26 1006.52
1014.11 1013.81 1013.35 1012.77 1012.09 1011.37 1010.57 1009.75 1009.38 1008.62 1008.13 1007.76 1007.31 1006.92 1006.43 1005.98 1005.59 1005.12 1004.72 1003.97 1003.27 1002.33 1001.85 1001.14 1000.04 999.75 999.87 1000.27 1000.12 1000.25 1000.05 1000.08 1000.25 1000.62 1001.07 1001.59 1002.16 1002.67 1003.16 1003.75 1004.23 1004.60 1004.91 1005.41
1014.28 1013.56 1012.90 1012.37 1011.79 1011.11 1010.76 1010.01 1009.60 1009.05 1008.29 1007.89 1007.65 1007.41 1007.08 1006.61 1006.36 1005.99 1005.50 1004.90 1004.57 1004.03 1003.49 1002.76 1002.16 1001.95 1001.72 1001.43 1001.18 1001.55 1000.96 1001.03 1000.69 1000.93 1001.31 1001.94 1002.39 1002.85 1003.06 1003.37 1003.69 1003.92 1003.90 1004.27
1014.66 1014.23 1013.70 1012.97 1012.39 1011.72 1010.45 1010.14 1009.48 1008.83 1008.36 1008.13 1007.89 1007.76 1007.62 1007.26 1006.95 1006.57 1006.09 1005.74 1005.46 1005.03 1004.57 1003.74 1003.36 1003.01 1003.01 1002.97 1002.93 1002.91 1002.95 1002.51 1001.93 1001.78 1001.68 1002.13 1002.24 1002.63 1002.58 1002.96 1003.93 1004.88 1004.71 1004.67
Wind_Speed
8 13 22 22 16 13 6 8 11 6 9 14 17 16 12 15 14 17 19 20 22 23 21 21 20 19 18 17 17 16 15 13 10 9 9 8 7 5 5 6 8 6 6 6
6 19 19 12 12 14 15 8 11 9 7 8 14 20 11 17 19 20 22 22 22 22 22 22 22 21 21 19 18 17 17 14 12 9 8 5 7 5 3 4 5 6 7 6
15 4 14 14 16 15 19 21 12 7 3 11 9 16 13 15 14 16 17 18 17 23 25 24 24 24 21 22 21 18 16 15 14 12 8 5 5 3 4 4 5 6 8 7
14 18 9 16 22 19 20 17 16 15 8 11 16 13 15 14 19 20 20 21 22 24 23 23 24 24 24 22 20 18 17 16 15 14 11 12 9 8 7 5 4 5 8 8
8 10 18 15 15 18 16 9 18 18 14 11 12 12 15 12 17 21 22 24 24 24 25 25 27 26 24 21 20 18 17 16 15 15 13 11 10 8 7 6 7 6 6 8
7 6 8 18 13 18 9 5 11 12 14 19 21 14 16 14 18 18 21 22 24 25 26 25 24 23 22 21 20 19 18 17 16 16 16 14 13 11 9 9 9 8 7 6
1 6 6 7 11 18 17 14 7 7 10 17 18 19 15 9 14 18 21 24 25 24 24 24 25 24 23 23 23 19 19 18 18 17 17 16 15 14 14 12 10 10 8 7
4 9 3 5 10 9 22 20 9 13 9 12 17 15 16 23 20 10 14 16 20 23 23 26 26 24 24 24 23 22 21 19 19 19 18 15 16 12 12 13 11 10 9 9
2 5 2 1 4 4 14 24 22 11 2 10 13 17 15 13 16 22 16 14 19 24 25 27 28 27 25 23 24 23 21 20 19 19 16 16 15 15 13 14 12 10 9 8
1 6 2 3 5 13 11 11 19 13 17 14 7 19 14 23 19 15 21 20 19 21 24 24 25 26 23 25 23 23 22 21 21 20 17 15 17 16 15 13 13 12 10 10
1 4 2 5 5 7 8 11 10 14 17 11 14 10 10 17 20 21 17 19 21 22 24 25 24 24 25 23 23 23 22 22 20 20 19 18 16 17 15 14 14 13 12 11
2 3 6 8 12 7 9 7 13 14 19 18 16 8 3 11 19 21 21 18 21 22 23 23 23 23 24 24 23 24 23 22 21 20 18 18 17 16 17 16 16 15 14 13
6 3 5 6 6 6 4 2 6 11 13 18 17 16 18 13 9 9 10 12 13 17 16 16 19 22 22 24 23 23 23 24 23 20 20 19 18 17 17 17 15 15 14 14
6 4 9 9 11 11 10 11 12 8 13 17 17 16 20 21 14 9 8 8 9 11 15 17 18 20 20 21 21 21 22 23 22 21 21 19 19 19 18 16 15 16 15 14
5 7 8 13 16 14 18 22 20 16 15 12 17 17 14 19 19 20 12 5 5 5 12 17 20 18 20 20 20 20 20 20 20 20 20 20 19 18 17 15 16 16 15 14
5 4 7 15 14 16 23 23 22 21 22 16 19 17 11 12 8 4 8 8 9 7 9 14 19 19 20 22 22 22 22 22 20 20 20 19 18 17 17 16 16 15 16 15
7 4 5 11 10 18 15 25 24 19 12 19 20 13 8 10 4 6 8 9 11 11 10 14 18 19 20 23 22 24 24 20 20 20 19 18 18 18 17 16 16 16 17 15
9 6 2 9 8 11 12 6 22 19 5 6 11 6 8 8 6 7 9 10 11 13 14 15 15 19 22 22 22 17 21 20 20 20 19 18 19 18 16 16 17 16 15 15
15 9 5 6 6 16 12 4 12 17 5 4 7 5 7 7 6 2 14 13 13 13 14 17 17 19 15 19 19 19 20 20 20 20 20 19 18 17 17 17 16 14 14 14
15 15 9 6 7 9 4 13 11 4 5 7 6 7 9 6 6 6 15 14 13 12 11 14 15 15 18 18 22 20 20 20 21 21 20 17 17 17 17 16 17 15 15 15
8 8 14 12 8 13 7 22 13 7 7 6 8 9 10 9 7 6 11 11 9 10 12 7 8 13 15 16 18 19 19 21 18 17 17 17 17 18 17 16 14 14 14 13
8 8 7 8 11 13 11 15 4 6 3 6 8 10 10 9 8 9 10 11 14 16 19 17 13 11 10 13 16 15 14 12 13 15 16 16 16 14 14 15 13 14 13 13
4 4 1 4 2 5 12 10 7 6 4 7 9 10 9 9 10 10 10 11 14 17 17 16 16 19 18 14 8 10 8 11 14 15 15 15 14 14 13 14 14 12 13 12
1 1 3 4 2 10 10 8 10 9 7 8 9 9 10 10 11 9 10 10 12 14 15 14 19 20 19 16 16 13 9 5 12 12 13 12 14 14 13 12 12 12 12 12
4 7 7 3 2 11 12 8 10 12 7 7 8 9 11 11 10 10 10 10 10 10 11 12 14 14 15 15 16 16 16 10 6 7 8 8 9 11 11 11 9 11 11 10
9 9 6 4 11 8 8 11 12 9 9 8 8 10 11 10 9 10 8 8 10 8 9 12 12 13 12 12 13 14 14 13 10 9 6 6 4 5 8 9 7 6 6 4
Wind_Direction
180 196 209 207 212 229 259 236 242 217 216 202 231 224 199 180 191 186 187 189 195 198 193 193 196 194 194 197 196 197 197 200 190 189 187 191 200 203 221 229 234 212 214 208
179 222 222 225 213 216 231 247 233 249 234 220 218 243 208 190 200 194 192 192 197 196 194 196 196 197 198 198 199 198 201 198 196 195 194 194 185 198 212 202 209 201 197 196
211 248 198 201 204 213 224 234 229 248 335 226 247 240 213 206 212 204 204 203 196 198 198 197 197 199 198 199 200 199 198 199 201 199 192 169 152 142 182 181 196 197 196 194
227 234 207 208 213 210 229 226 244 252 275 226 213 240 211 191 204 206 201 199 199 201 204 200 200 202 202 201 200 196 197 197 201 192 197 199 200 196 201 195 193 193 200 204
195 203 207 218 217 206 233 222 225 237 249 272 242 239 233 194 205 208 208 205 203 200 201 204 203 204 203 198 201 198 195 195 197 196 201 200 207 203 192 197 196 206 199 213
252 307 226 224 212 205 210 162 214 233 239 245 232 233 226 201 213 208 212 211 207 202 201 206 205 203 204 201 198 199 193 195 195 196 196 199 203 196 196 200 205 206 205 196
311 220 222 211 200 200 205 209 206 209 209 239 221 237 234 223 220 216 206 210 207 206 202 202 202 201 200 200 199 195 193 195 194 197 199 198 203 200 199 195 209 206 208 204
243 200 207 29 230 216 207 209 206 211 218 232 216 234 221 227 239 239 236 216 205 205 206 204 202 199 199 197 191 193 192 196 194 197 199 201 201 208 214 211 218 223 224 219
263 245 344 236 323 239 200 214 218 262 236 255 214 234 264 228 236 228 222 214 202 205 205 206 203 199 196 195 196 191 191 194 195 199 201 201 202 208 213 215 211 217 219 219
106 285 41 321 291 230 243 208 207 222 241 234 206 226 233 207 223 222 224 214 210 208 210 208 203 202 198 196 194 189 193 192 191 198 200 203 202 204 207 208 211 209 209 210
176 277 275 296 199 240 191 218 218 234 233 237 239 227 237 229 212 217 217 218 218 212 210 208 203 200 198 193 191 193 193 192 193 195 198 202 208 206 205 209 212 209 200 200
120 270 275 271 274 288 302 288 269 227 223 231 260 246 197 229 220 216 224 217 217 217 213 209 203 198 198 196 192 193 193 194 193 195 197 199 203 204 204 208 209 208 202 200
166 195 279 249 189 140 225 231 263 277 272 244 226 226 265 273 246 231 235 240 230 223 219 207 201 196 195 195 194 194 193 197 196 192 195 199 201 202 203 207 206 206 205 203
161 194 263 278 325 327 284 296 301 300 248 228 241 250 240 248 265 257 256 266 268 225 209 201 200 199 195 196 195 193 194 197 195 192 195 197 198 200 206 203 200 203 206 204
196 235 225 268 284 293 278 273 268 262 262 256 230 240 260 244 252 262 298 253 253 220 201 201 202 195 194 192 193 193 194 191 191 191 191 196 199 201 201 201 199 201 208 209
172 231 232 273 283 288 270 259 254 251 255 252 266 261 268 285 291 292 323 316 294 279 257 222 212 202 194 193 192 190 191 190 185 189 192 192 194 197 198 197 197 198 205 211
194 230 265 267 323 325 263 244 239 239 239 222 221 224 308 288 1 17 350 330 311 301 279 259 234 209 198 195 190 189 187 180 185 187 190 189 190 194 198 197 195 200 204 206
183 191 261 282 321 276 250 295 213 198 178 251 261 269 296 260 135 56 13 333 313 304 295 280 261 229 206 200 194 182 178 180 182 186 190 188 190 193 193 195 198 201 202 207
215 186 231 257 266 278 225 61 153 169 111 359 292 306 299 261 232 285 2 340 325 313 300 281 261 238 201 194 179 176 175 177 182 190 191 189 188 190 190 196 198 199 200 206
208 211 214 233 272 242 85 344 323 283 173 20 347 20 344 217 187 11 342 341 334 326 303 281 246 196 181 181 172 169 175 179 188 189 189 184 184 189 193 194 197 198 201 209
177 194 214 229 252 271 320 326 291 215 90 17 11 37 35 70 41 335 340 3 359 2 1 357 183 169 163 160 164 170 175 192 189 182 182 181 185 190 193 194 196 197 202 211
170 187 203 220 226 248 349 311 267 34 49 29 18 27 36 42 29 10 353 12 24 33 35 45 63 89 118 145 161 170 178 175 175 175 179 183 184 191 194 195 193 200 202 211
181 249 298 231 222 279 292 279 9 341 358 14 13 14 14 25 21 13 4 9 17 32 43 47 65 68 56 60 127 135 143 178 175 177 184 185 186 193 192 193 194 198 203 214
296 310 251 249 26 13 290 345 350 351 346 347 2 359 17 18 19 16 16 18 19 22 29 32 48 51 52 51 55 46 41 184 181 184 186 184 187 189 194 194 197 203 203 208
306 311 301 254 323 318 257 305 340 331 341 3 4 359 7 15 9 9 13 15 18 20 16 29 41 46 45 39 41 32 38 44 114 167 182 187 199 196 197 206 206 206 211 211
1 7 355 349 317 310 292 349 1 357 360 5 358 356 356 2 357 353 359 8 10 16 16 24 29 35 32 33 39 36 30 30 47 66 91 93 92 188 201 201 207 39 40 85